Location: Seattle
(47.6064°N, 122.3308°W)
Time: 05:26:57
(UTC-08:00)

N. Korean satellite - Pass Details

Date: 07 December 2022
Orbit: 407 x 441 km, 97.3° (Epoch: 05 February)

Event Time Altitude Azimuth Distance (km) Brightness Sun altitude
Rises 05:53:41 0° 8° (N) 2,515 10.1 -17.7°
Reaches altitude 10° 05:55:47 10° 3° (N) 1,628 9.1 -17.3°
Maximum altitude 05:59:11 51° 287° (WNW) 587 6.5 -16.8°
Drops below altitude 10° 06:02:30 10° 211° (SSW) 1,587 9.0 -16.2°
Sets 06:04:32 0° 206° (SSW) 2,444 10.0 -15.9°
